カタログに戻る

FENGYUN 1C DEB

運用中SSO
NORAD 33738·DEBRIS·🇨🇳 China

打ち上げ May 10, 1999 から Taiyuan Satellite Launch Center

Loading…

次のパス (今後24時間)

TLE

最新Source: Space-Track

元期: Sep 11, 2026, 22:30 UTC

1 33738U 99025DJB 26254.93812772  .00000625  00000-0  38983-3 0  9994
2 33738  99.1169 319.5467 0189757 349.0806 186.5190 14.00023868930580

AllMySatでFENGYUN 1C DEBをリアルタイム追跡

Download on the App Store